Flag for U.S.A. Weather past 2 weeks in Victoria, Texas, U.S.A.

Now
87 °F

Scattered clouds.


Feels Like: 95 °F
Forecast: 72 / 86 °F
Wind: 13 mph from Southeast

Location: Victoria Regional Airport

Current Time: May 30, 2015 at 4:03:29 PM

Latest Report: May 30, 2015 at 2:51 PM


Visibility: 10 mi

Pressure: 30.00 "Hg

Humidity: 65%

Dew point: 74 °F

Location of VictoriaLocation

Historic Weather in Victoria — Graph

°F

Victoria temperature yesterday

Maximum temperature yesterday: 88 °F (at 2:51 PM)
Minimum temperature yesterday: 66 °F (at 4:58 AM)
Average temperature yesterday: 77 °F

Past Weeks' High & Low Weather Summary

 TemperatureHumidityPressure
High89 °F (May 26, 2:54 PM)100% (May 15, 2:51 PM)30.10 "Hg (May 15, 2:51 PM)
Low66 °F (May 29, 4:58 AM)51% (May 29, 4:51 PM)29.76 "Hg (May 25, 5:51 PM)
Average78 °F88%29.97 "Hg
* Reported May 15 2:51 PM — May 30 2:51 PM, Victoria, Weather by CustomWeather, © 2015

Note: Actual official high and low records may vary slightly from our data, if they occured in-between our weather recording intervals... More about our weather records

Advertising

Victoria weather history for previous 24 hours

 ConditionsComfort  
Time TempWeatherWind HumidityBarometerVisibility
2:51 PM
Sat, May 30
87 °FScattered clouds.13 mph65%30.00 "Hg10 mi
1:51 PM87 °FPartly sunny.6 mph63%29.99 "Hg10 mi
12:51 PM87 °FScattered clouds.3 mph63%29.99 "Hg10 mi
11:51 AM86 °FScattered clouds.No wind67%30.02 "Hg10 mi
10:51 AM83 °FScattered clouds.6 mph77%30.04 "Hg10 mi
9:51 AM80 °FScattered clouds.3 mph87%30.05 "Hg10 mi
9:00 AM81 °FPassing clouds.3 mph88%30.04 "Hg10 mi
7:51 AM75 °FFog.No wind100%30.01 "Hg4 mi
6:58 AM73 °FFog.No wind100%30.01 "Hg3 mi
5:51 AM72 °FFog.5 mph100%29.98 "Hg5 mi
4:51 AM72 °FFog.3 mph100%29.97 "Hg6 mi
3:51 AM72 °FClear.3 mph100%29.95 "Hg7 mi
2:51 AM73 °FClear.3 mph97%29.96 "Hg8 mi
1:51 AM73 °FClear.No wind100%29.97 "Hg10 mi
12:51 AM74 °FClear.3 mph97%29.97 "Hg10 mi
11:51 PM
Fri, May 29
74 °FPassing clouds.6 mph94%29.98 "Hg10 mi
10:51 PM74 °FClear.7 mph94%29.97 "Hg10 mi
9:51 PM74 °FClear.7 mph94%29.96 "Hg10 mi
8:51 PM77 °FSunny.7 mph82%29.95 "Hg10 mi
7:51 PM81 °FSunny.9 mph69%29.94 "Hg10 mi
6:51 PM84 °FSunny.17 mph61%29.93 "Hg10 mi
5:51 PM86 °FSunny.16 mph57%29.93 "Hg10 mi
4:51 PM87 °FSunny.18 mph51%29.94 "Hg10 mi
Weather by CustomWeather, © 2015

See weather overviewHow to use our weather pages